Weather History for Middletown, PA

Change the Weather History Date:

Saturday, January 19, 2013

  Actual Average Record
Temperature  
Mean Temperature 38 °F 30 °F  
Max Temperature 53 °F 37 °F 66 °F (1951)
Min Temperature 23 °F 22 °F -14 °F (1994)
Degree Days  
Heating Degree Days 27 35  
Month to date heating degree days 564 662  
Since 1 July heating degree days 2436 2663  
Cooling Degree Days 0 0  
Month to date cooling degree days 0 0  
Year to date cooling degree days 0 0  
Moisture  
Dew Point 23 °F    
Average Humidity 51    
Maximum Humidity 72    
Minimum Humidity 29    
Precipitation  
Precipitation 0.00 in 0.09 in 1.99 in (1936)
Month to date precipitation 1.19 1.79  
Year to date precipitation 1.19 1.79  
Snow  
Snow 0.00 in - - ()
Month to date snowfall T  
Since 1 July snowfall 7.5  
Snow Depth 0.00 in    
Sea Level Pressure  
Sea Level Pressure 30.15 in    
Wind  
Wind Speed 10 mph (SSW)    
Max Wind Speed 21 mph    
Max Gust Speed 32 mph    
Visibility 10 miles    
Events      
T = Trace of Precipitation, MM = Missing Value Source: NWS Daily Summary

Daily Weather History Graph

Daily Weather History Graph

Search for Another Location

Airport:

Trip Planner

Search our weather history database for the weather conditions in past years. The results will help you decide how hot, cold, wet, or windy it might be!

Date:

Astronomy

Jan. 19, 2013 Rise Set
Actual Time 7:25 AM EST 5:10 PM EST
Civil Twilight 6:55 AM EST 5:40 PM EST
Nautical Twilight 6:22 AM EST 6:13 PM EST
Astronomical Twilight 5:50 AM EST 6:45 PM EST
Moon 11:35 AM EST (1/19) 12:57 AM EST (1/19)
Length of Visible Light 10h 44m
Length of Day
9h 45m
First Quarter, 57% of the Moon is Illuminated
Jan 19
First Quarter
Jan 26
Full
Feb 3
Last Quarter
Feb 10
New
Feb 17
First Quarter

Hourly Weather History & Observations

Time (EST) Temp. Windchill Dew Point Humidity Pressure Visibility Wind Dir Wind Speed Gust Speed Precip Events Conditions
12:56 AM 24.1 °F - 15.1 °F 69% 30.38 in 10.0 mi Calm Calm - N/A   Clear
1:56 AM 26.1 °F - 15.1 °F 63% 30.35 in 10.0 mi Calm Calm - N/A   Clear
2:56 AM 30.9 °F 23.5 °F 19.9 °F 64% 30.33 in 10.0 mi South 8.1 mph - N/A   Clear
3:56 AM 30.9 °F 20.7 °F 21.9 °F 69% 30.31 in 10.0 mi SSW 13.8 mph - N/A   Mostly Cloudy
4:56 AM 30.9 °F 22.2 °F 23.0 °F 72% 30.30 in 10.0 mi SW 10.4 mph - N/A   Mostly Cloudy
5:56 AM 30.9 °F 20.7 °F 23.0 °F 72% 30.28 in 10.0 mi SSW 13.8 mph 21.9 mph N/A   Mostly Cloudy
6:56 AM 32.0 °F 24.8 °F 23.0 °F 69% 30.28 in 10.0 mi SSW 8.1 mph - N/A   Mostly Cloudy
7:56 AM 32.0 °F 23.0 °F 23.0 °F 69% 30.28 in 10.0 mi SSW 11.5 mph 20.7 mph N/A   Scattered Clouds
8:56 AM 34.0 °F 26.0 °F 23.0 °F 64% 30.29 in 10.0 mi SW 10.4 mph 19.6 mph N/A   Scattered Clouds
9:56 AM 36.0 °F 27.1 °F 23.0 °F 59% 30.28 in 10.0 mi SW 13.8 mph 20.7 mph N/A   Partly Cloudy
10:56 AM 39.9 °F 33.9 °F 24.1 °F 53% 30.25 in 10.0 mi SSW 9.2 mph 19.6 mph N/A   Partly Cloudy
11:56 AM 44.1 °F 38.6 °F 23.0 °F 43% 30.19 in 10.0 mi SSW 10.4 mph 18.4 mph N/A   Scattered Clouds
12:56 PM 48.0 °F - 24.1 °F 39% 30.14 in 10.0 mi SW 6.9 mph - N/A   Scattered Clouds
1:56 PM 51.1 °F - 23.0 °F 33% 30.10 in 10.0 mi SSW 8.1 mph 16.1 mph N/A   Scattered Clouds
2:56 PM 52.0 °F - 21.9 °F 31% 30.07 in 10.0 mi SSW 9.2 mph 19.6 mph N/A   Mostly Cloudy
3:56 PM 53.1 °F - 23.0 °F 31% 30.05 in 10.0 mi SSW 10.4 mph 20.7 mph N/A   Mostly Cloudy
4:56 PM 50.0 °F - 24.1 °F 36% 30.03 in 10.0 mi Variable 6.9 mph - N/A   Partly Cloudy
5:56 PM 48.9 °F - 24.1 °F 38% 30.02 in 10.0 mi SSE 8.1 mph - N/A   Partly Cloudy
6:56 PM 46.0 °F 41.9 °F 27.0 °F 47% 30.01 in 10.0 mi South 8.1 mph - N/A   Partly Cloudy
7:56 PM 46.9 °F - 26.1 °F 44% 30.00 in 10.0 mi South 15.0 mph 21.9 mph N/A   Partly Cloudy
8:56 PM 46.0 °F 41.4 °F 26.1 °F 46% 29.97 in 10.0 mi SSW 9.2 mph 20.7 mph N/A   Clear
9:56 PM 45.0 °F 38.5 °F 27.0 °F 49% 29.94 in 10.0 mi SSW 13.8 mph 25.3 mph N/A   Partly Cloudy
10:56 PM 44.1 °F 37.1 °F 27.0 °F 51% 29.92 in 10.0 mi SSW 15.0 mph 29.9 mph N/A   Partly Cloudy
11:56 PM 44.1 °F 37.7 °F 27.0 °F 51% 29.88 in 10.0 mi SSW 12.7 mph 24.2 mph N/A   Partly Cloudy